Weather History for Dunkirk, NY

Change the Weather History Date:

Sunday, August 12, 2012

  Actual Average Record
Temperature  
Mean Temperature 68 °F -  
Max Temperature 73 °F 77 °F 92 °F (1939)
Min Temperature 64 °F 58 °F 45 °F (1930)
Cooling Degree Days 4    
Growing Degree Days 18 (Base 50)    
Moisture  
Dew Point 62 °F    
Average Humidity 84    
Maximum Humidity 94    
Minimum Humidity 64    
Precipitation  
Precipitation 0.31 in - - ()
Sea Level Pressure  
Sea Level Pressure 29.93 in    
Wind  
Wind Speed 9 mph (SW)    
Max Wind Speed 15 mph    
Max Gust Speed 25 mph    
Visibility 8 miles    
Events Rain    
Averages and records for this station are not official NWS values.
T = Trace of Precipitation, MM = Missing Value Source: NWS Daily Summary

Daily Weather History Graph

Daily Weather History Graph

Search for Another Location

Airport:

Trip Planner

Search our weather history database for the weather conditions in past years. The results will help you decide how hot, cold, wet, or windy it might be!

Date:

Astronomy

Aug. 12, 2012 Rise Set
Actual Time 6:21 AM EDT 8:22 PM EDT
Civil Twilight 5:50 AM EDT 8:52 PM EDT
Nautical Twilight 5:13 AM EDT 9:29 PM EDT
Astronomical Twilight 4:32 AM EDT 10:10 PM EDT
Moon 1:30 AM EDT (8/12) 4:48 PM EDT (8/12)
Length of Visible Light 15h 01m
Length of Day
14h 00m
Waning Crescent, 24% of the Moon is Illuminated
Aug 12
Waning Crescent
Aug 17
New
Aug 24
First Quarter
Aug 31
Full
Sep 8
Last Quarter

Hourly Weather History & Observations

Time (EDT) Temp. Dew Point Humidity Pressure Visibility Wind Dir Wind Speed Gust Speed Precip Events Conditions
12:53 AM 64.9 °F 59.0 °F 81% 29.89 in 10.0 mi SSW 9.2 mph - N/A   Mostly Cloudy
1:53 AM 64.9 °F 59.0 °F 81% 29.88 in 10.0 mi SSW 8.1 mph - N/A   Overcast
2:53 AM 64.9 °F 60.1 °F 84% 29.88 in 10.0 mi SSW 8.1 mph - N/A   Scattered Clouds
3:53 AM 64.9 °F 60.1 °F 84% 29.88 in 10.0 mi SSW 8.1 mph - N/A   Overcast
4:11 AM 64.4 °F 60.8 °F 88% 29.90 in 10.0 mi SSW 10.4 mph - N/A   Mostly Cloudy
4:38 AM 64.4 °F 60.8 °F 88% 29.90 in 5.0 mi SW 10.4 mph - 0.02 in Rain Light Rain
4:53 AM 64.0 °F 61.0 °F 90% 29.89 in 10.0 mi SW 9.2 mph - 0.02 in   Overcast
5:17 AM 64.4 °F 60.8 °F 88% 29.90 in 10.0 mi SSW 8.1 mph - N/A   Overcast
5:24 AM 64.4 °F 60.8 °F 88% 29.90 in 10.0 mi SSW 9.2 mph - N/A   Overcast
5:53 AM 64.0 °F 60.1 °F 87% 29.90 in 10.0 mi SSW 8.1 mph - N/A   Mostly Cloudy
6:53 AM 64.0 °F 60.1 °F 87% 29.91 in 5.0 mi SSW 6.9 mph - 0.00 in Rain Light Rain
7:01 AM 64.4 °F 60.8 °F 88% 29.91 in 6.0 mi SSW 4.6 mph - 0.01 in Rain Light Rain
7:07 AM 64.4 °F 60.8 °F 88% 29.92 in 1.5 mi SW 9.2 mph - 0.07 in Rain Heavy Rain
7:17 AM 64.4 °F 60.8 °F 88% 29.92 in 4.0 mi SSW 9.2 mph - 0.08 in Rain Light Rain
7:53 AM 64.0 °F 62.1 °F 93% 29.92 in 10.0 mi SSW 6.9 mph - 0.08 in   Overcast
8:20 AM 64.4 °F 60.8 °F 88% 29.92 in 2.5 mi SSW 5.8 mph - 0.05 in Rain Light Rain
8:28 AM 64.4 °F 60.8 °F 88% 29.93 in 4.0 mi SSW 6.9 mph - 0.06 in Rain Light Rain
8:53 AM 64.9 °F 62.1 °F 90% 29.93 in 10.0 mi SW 8.1 mph - 0.07 in Rain Light Rain
9:33 AM 66.2 °F 62.6 °F 88% 29.94 in 2.5 mi SW 8.1 mph - 0.02 in Rain Rain
9:41 AM 64.4 °F 62.6 °F 94% 29.94 in 1.2 mi SSW 8.1 mph - 0.07 in Rain Heavy Rain
9:47 AM 64.4 °F 62.6 °F 94% 29.94 in 3.0 mi SW 6.9 mph - 0.08 in Rain Light Rain
9:53 AM 64.9 °F 62.1 °F 90% 29.94 in 10.0 mi SSW 9.2 mph - 0.08 in   Overcast
10:14 AM 66.2 °F 62.6 °F 88% 29.94 in 10.0 mi SSW 8.1 mph - N/A   Overcast
10:36 AM 66.2 °F 62.6 °F 88% 29.94 in 2.5 mi SSW 6.9 mph - 0.03 in Rain Rain
10:49 AM 66.2 °F 62.6 °F 88% 29.94 in 10.0 mi SSW 5.8 mph - 0.03 in Rain Light Rain
10:53 AM 66.0 °F 63.0 °F 90% 29.94 in 10.0 mi SW 5.8 mph - 0.03 in   Overcast
11:53 AM 68.0 °F 64.0 °F 87% 29.94 in 10.0 mi SW 6.9 mph - N/A   Overcast
12:24 PM 66.2 °F 64.4 °F 94% 29.94 in 2.5 mi WSW 6.9 mph - 0.03 in Rain Light Rain
12:28 PM 66.2 °F 64.4 °F 94% 29.94 in 6.0 mi SW 6.9 mph - 0.03 in Rain Light Rain
12:50 PM 69.8 °F 64.4 °F 83% 29.94 in 10.0 mi WSW 13.8 mph - 0.03 in   Overcast
12:53 PM 69.1 °F 64.0 °F 84% 29.94 in 10.0 mi WSW 10.4 mph - 0.03 in   Overcast
1:23 PM 69.8 °F 62.6 °F 78% 29.94 in 10.0 mi SW 12.7 mph 18.4 mph N/A   Overcast
1:31 PM 69.8 °F 64.4 °F 83% 29.94 in 10.0 mi SW 9.2 mph - N/A   Overcast
1:38 PM 71.6 °F 64.4 °F 78% 29.95 in 10.0 mi WSW 10.4 mph - N/A   Overcast
1:46 PM 69.8 °F 62.6 °F 78% 29.95 in 10.0 mi SW 13.8 mph - N/A   Overcast
1:53 PM 70.0 °F 62.1 °F 76% 29.94 in 10.0 mi SW 12.7 mph - N/A   Overcast
2:53 PM 72.0 °F 62.1 °F 71% 29.94 in 10.0 mi SW 13.8 mph 20.7 mph N/A   Overcast
3:53 PM 73.9 °F 61.0 °F 64% 29.94 in 10.0 mi WSW 11.5 mph 20.7 mph N/A   Partly Cloudy
4:53 PM 73.0 °F 60.1 °F 64% 29.95 in 10.0 mi WSW 15.0 mph 25.3 mph N/A   Scattered Clouds
5:53 PM 72.0 °F 61.0 °F 68% 29.95 in 10.0 mi WSW 13.8 mph 21.9 mph N/A   Mostly Cloudy
6:53 PM 72.0 °F 62.1 °F 71% 29.96 in 10.0 mi WSW 8.1 mph - 0.00 in   Overcast
7:53 PM 71.1 °F 62.1 °F 73% 29.96 in 10.0 mi WSW 9.2 mph 18.4 mph N/A   Scattered Clouds
8:53 PM 71.1 °F 62.1 °F 73% 29.97 in 10.0 mi WSW 11.5 mph - N/A   Mostly Cloudy
9:18 PM 69.8 °F 62.6 °F 78% 29.99 in 10.0 mi SW 5.8 mph - N/A   Mostly Cloudy
9:25 PM 68.0 °F 62.6 °F 83% 29.99 in 10.0 mi SSW 5.8 mph - N/A   Scattered Clouds
9:53 PM 69.1 °F 62.1 °F 78% 29.99 in 10.0 mi SSW 9.2 mph - N/A   Mostly Cloudy
10:53 PM 69.1 °F 62.1 °F 78% 29.99 in 10.0 mi SSW 8.1 mph - N/A   Mostly Cloudy
11:53 PM 66.9 °F 62.1 °F 84% 29.99 in 10.0 mi SSW 8.1 mph - N/A   Mostly Cloudy